Southern Pines, NC

9:38 PM EST on February 13, 2016 (GMT -0500)
Moore County

Weather History for KSOP - June, 2014

Change the Weather History Date:

Friday, June 27, 2014

  Actual Average (KFAY) Record (KFAY)
Temperature  
Mean Temperature 78 °F 80 °F  
Max Temperature 87 °F 90 °F 102 °F (1998)
Min Temperature 69 °F 70 °F 56 °F (1979)
Degree Days  
Heating Degree Days 0 0  
Month to date heating degree days 0  
Since 1 June heating degree days 0  
Since 1 July heating degree days 2732  
Cooling Degree Days 13 15  
Month to date cooling degree days 349  
Year to date cooling degree days 633  
Since 1 June cooling degree days 349  
Growing Degree Days 28 (Base 50)    
Moisture  
Dew Point 67 °F    
Average Humidity 72    
Maximum Humidity 88    
Minimum Humidity 51    
Precipitation  
Precipitation 0.00 in 0.14 in 3.90 in (1958)
Month to date precipitation 3.86  
Year to date precipitation 19.53  
Sea Level Pressure  
Sea Level Pressure 30.04 in    
Wind  
Wind Speed 4 mph (ENE)    
Max Wind Speed 24 mph    
Max Gust Speed 31 mph    
Visibility 10 miles    
Events      
T = Trace of Precipitation, MM = Missing Value Source: NWS Daily Summary

Daily Weather History Graph

Daily Weather History Graph

Search for Another Location

Airport or City:

Trip Planner

Search our weather history database for the weather conditions in past years. The results will help you decide how hot, cold, wet, or windy it might be!

Date:

Astronomy

Jun. 27, 2014 Rise Set
Actual Time 6:05 AM EDT 8:36 PM EDT
Civil Twilight 5:35 AM EDT 9:06 PM EDT
Nautical Twilight 4:58 AM EDT 9:42 PM EDT
Astronomical Twilight 4:17 AM EDT 10:23 PM EDT
Moon 6:30 AM EDT (6/27) 8:44 PM EDT (6/27)
Length of Visible Light 15h 30m
Length of Day
14h 31m
New Moon, 0% of the Moon is Illuminated
Jun 27
New Moon
Jul 5
First Quarter
Jul 12
Full
Jul 18
Last Quarter
Jul 26
New

Hourly Weather History & Observations

Time (EDT) Temp. Heat Index Dew Point Humidity Pressure Visibility Wind Dir Wind Speed Gust Speed Precip Events Conditions
12:15 AM 77.0 °F - 64.4 °F 65% 29.99 in 10.0 mi West 4.6 mph - N/A   Scattered Clouds
12:35 AM 77.0 °F - 64.4 °F 65% 29.99 in 10.0 mi Calm Calm - N/A   Mostly Cloudy
12:55 AM 75.2 °F - 64.4 °F 69% 29.99 in 10.0 mi Calm Calm - N/A   Scattered Clouds
1:15 AM 75.2 °F - 64.4 °F 69% 29.98 in 10.0 mi ESE 3.5 mph - N/A   Clear
1:35 AM 73.4 °F - 64.4 °F 73% 29.99 in 10.0 mi Calm Calm - N/A   Clear
1:55 AM 73.4 °F - 66.2 °F 78% 29.99 in 10.0 mi Calm Calm - N/A   Clear
2:15 AM 73.4 °F - 66.2 °F 78% 29.99 in 10.0 mi Calm Calm - N/A   Clear
2:35 AM 73.4 °F - 66.2 °F 78% 30.00 in 10.0 mi NE 4.6 mph - N/A   Clear
2:55 AM 73.4 °F - 68.0 °F 83% 29.99 in 10.0 mi ENE 4.6 mph - N/A   Scattered Clouds
3:15 AM 73.4 °F - 66.2 °F 78% 29.99 in 10.0 mi East 4.6 mph - N/A   Mostly Cloudy
3:35 AM 73.4 °F - 66.2 °F 78% 29.98 in 10.0 mi Calm Calm - N/A   Clear
3:55 AM 73.4 °F - 66.2 °F 78% 29.98 in 10.0 mi East 4.6 mph - N/A   Scattered Clouds
4:35 AM 73.4 °F - 66.2 °F 78% 29.99 in 10.0 mi ENE 5.8 mph - N/A   Mostly Cloudy
4:55 AM 73.4 °F - 66.2 °F 78% 29.99 in 9.0 mi ESE 3.5 mph - N/A   Mostly Cloudy
5:15 AM 73.4 °F - 66.2 °F 78% 29.99 in 10.0 mi NE 4.6 mph - N/A   Scattered Clouds
5:35 AM 73.4 °F - 66.2 °F 78% 30.00 in 10.0 mi NE 3.5 mph - N/A   Clear
5:55 AM 71.6 °F - 66.2 °F 83% 30.00 in 10.0 mi Calm Calm - N/A   Clear
6:15 AM 71.6 °F - 66.2 °F 83% 30.01 in 10.0 mi NE 3.5 mph - N/A   Clear
6:35 AM 71.6 °F - 66.2 °F 83% 30.02 in 10.0 mi Calm Calm - N/A   Clear
6:55 AM 71.6 °F - 66.2 °F 83% 30.01 in 10.0 mi Calm Calm - N/A   Clear
7:35 AM 73.4 °F - 68.0 °F 83% 30.02 in 10.0 mi ENE 4.6 mph - N/A   Clear
7:55 AM 73.4 °F - 66.2 °F 78% 30.02 in 10.0 mi East 4.6 mph - N/A   Clear
8:15 AM 73.4 °F - 66.2 °F 78% 30.02 in 10.0 mi NE 3.5 mph - N/A   Clear
8:35 AM 73.4 °F - 68.0 °F 83% 30.03 in 10.0 mi NE 3.5 mph - N/A   Clear
8:55 AM 75.2 °F - 68.0 °F 78% 30.04 in 10.0 mi NE 4.6 mph - N/A   Clear
9:15 AM 75.2 °F - 68.0 °F 78% 30.04 in 10.0 mi NE 5.8 mph - N/A   Clear
9:35 AM 75.2 °F - 68.0 °F 78% 30.05 in 10.0 mi NNE 4.6 mph - N/A   Clear
9:55 AM 77.0 °F - 69.8 °F 78% 30.05 in 10.0 mi ENE 3.5 mph - N/A   Clear
10:15 AM 78.8 °F - 69.8 °F 74% 30.05 in 10.0 mi NNE 5.8 mph - N/A   Clear
10:35 AM 78.8 °F - 69.8 °F 74% 30.06 in 10.0 mi ENE 4.6 mph - N/A   Clear
10:55 AM 80.6 °F 83.9 °F 69.8 °F 70% 30.06 in 10.0 mi NE 8.1 mph - N/A   Partly Cloudy
11:15 AM 82.4 °F 86.3 °F 69.8 °F 66% 30.06 in 10.0 mi NE 6.9 mph - N/A   Clear
11:35 AM 82.4 °F 86.3 °F 69.8 °F 66% 30.06 in 10.0 mi NE 8.1 mph - N/A   Partly Cloudy
11:55 AM 84.2 °F 88.4 °F 69.8 °F 62% 30.06 in 10.0 mi NE 6.9 mph - N/A   Clear
12:15 PM 84.2 °F 87.3 °F 68.0 °F 58% 30.06 in 10.0 mi ENE 12.7 mph - N/A   Partly Cloudy
12:35 PM 84.2 °F 87.3 °F 68.0 °F 58% 30.06 in 10.0 mi East 6.9 mph - N/A   Partly Cloudy
12:55 PM 84.2 °F 88.4 °F 69.8 °F 62% 30.06 in 10.0 mi NE 10.4 mph - N/A   Scattered Clouds
1:15 PM 84.2 °F 87.3 °F 68.0 °F 58% 30.06 in 10.0 mi NE 9.2 mph - N/A   Partly Cloudy
1:35 PM 84.2 °F 88.4 °F 69.8 °F 62% 30.06 in 10.0 mi NE 6.9 mph - N/A   Scattered Clouds
1:55 PM 84.2 °F 88.4 °F 69.8 °F 62% 30.05 in 10.0 mi ENE 9.2 mph - N/A   Partly Cloudy
2:15 PM 84.2 °F 88.4 °F 69.8 °F 62% 30.04 in 10.0 mi NE 8.1 mph - N/A   Clear
2:35 PM 87.8 °F 92.6 °F 69.8 °F 55% 30.03 in 10.0 mi ENE 9.2 mph - N/A   Clear
2:55 PM 86.0 °F 89.4 °F 68.0 °F 55% 30.03 in 10.0 mi NE 8.1 mph - N/A   Clear
3:15 PM 87.8 °F 92.6 °F 69.8 °F 55% 30.02 in 10.0 mi East 4.6 mph - N/A   Clear
3:35 PM 86.0 °F 89.4 °F 68.0 °F 55% 30.02 in 10.0 mi ENE 5.8 mph - N/A   Clear
3:55 PM 87.8 °F 91.4 °F 68.0 °F 52% 30.02 in 10.0 mi NNE 6.9 mph - N/A   Clear
4:35 PM 87.8 °F 92.6 °F 69.8 °F 55% 30.01 in 10.0 mi ENE 10.4 mph - N/A   Clear
4:55 PM 87.8 °F 91.4 °F 68.0 °F 52% 30.00 in 10.0 mi NE 8.1 mph - N/A   Scattered Clouds
5:15 PM 84.2 °F 86.6 °F 66.2 °F 55% 30.00 in 10.0 mi ENE 9.2 mph - N/A   Partly Cloudy
5:35 PM 86.0 °F 88.2 °F 66.2 °F 51% 30.02 in 10.0 mi ENE 6.9 mph - N/A   Clear
5:55 PM 84.2 °F 87.3 °F 68.0 °F 58% 30.02 in 10.0 mi ENE 8.1 mph - N/A   Scattered Clouds
6:15 PM 84.2 °F 87.3 °F 68.0 °F 58% 30.02 in 10.0 mi NE 9.2 mph - N/A   Mostly Cloudy
6:35 PM 80.6 °F 82.7 °F 66.2 °F 61% 30.05 in 10.0 mi East 24.2 mph 31.1 mph N/A   Overcast
6:55 PM 78.8 °F - 66.2 °F 65% 30.06 in 10.0 mi East 17.3 mph 27.6 mph N/A   Mostly Cloudy
7:15 PM 75.2 °F - 66.2 °F 73% 30.09 in 10.0 mi SE 9.2 mph 21.9 mph N/A   Overcast
7:35 PM 75.2 °F - 66.2 °F 73% 30.08 in 10.0 mi SE 6.9 mph - N/A   Overcast
7:55 PM 75.2 °F - 66.2 °F 73% 30.07 in 10.0 mi South 8.1 mph - N/A   Overcast
8:15 PM 73.4 °F - 66.2 °F 78% 30.07 in 10.0 mi South 3.5 mph - N/A   Mostly Cloudy
8:35 PM 73.4 °F - 66.2 °F 78% 30.07 in 10.0 mi Calm Calm - N/A   Mostly Cloudy
8:55 PM 71.6 °F - 68.0 °F 88% 30.07 in 10.0 mi WSW 4.6 mph - N/A   Mostly Cloudy
9:15 PM 71.6 °F - 66.2 °F 83% 30.07 in 10.0 mi Calm Calm - N/A   Scattered Clouds
9:35 PM 71.6 °F - 66.2 °F 83% 30.08 in 10.0 mi Calm Calm - N/A   Clear
9:55 PM 71.6 °F - 68.0 °F 88% 30.10 in 10.0 mi Calm Calm - N/A   Clear
10:15 PM 71.6 °F - 66.2 °F 83% 30.10 in 10.0 mi Calm Calm - N/A   Clear
10:35 PM 71.6 °F - 66.2 °F 83% 30.11 in 10.0 mi Calm Calm - N/A   Partly Cloudy
10:55 PM 71.6 °F - 66.2 °F 83% 30.12 in 10.0 mi NE 3.5 mph - N/A   Scattered Clouds
11:15 PM 69.8 °F - 66.2 °F 88% 30.12 in 10.0 mi East 3.5 mph - N/A   Partly Cloudy
11:35 PM 69.8 °F - 64.4 °F 83% 30.11 in 10.0 mi East 4.6 mph - N/A   Partly Cloudy
11:55 PM 71.6 °F - 66.2 °F 83% 30.12 in 10.0 mi East 3.5 mph - N/A   Clear